Satellite-Ground Cal/Val Site Overpasses Predictions

Prediction of Satellite NPP Overpassing Cal/Val Site: Antarctic Dome C

Ground Cal/Val Site Location: Latitude: -75.10, Longitude: 123.35; Satellite-Ground Site NADIR distance within 100 km.

Table of predicted overpasses for the next 14.0 days since TLE Epoch: 1/2/2021
Interval Starting Time Ending Time Minimum Distance Time Minimum Distance (km)
1 01/02/2021 15:07:12 01/02/2021 15:07:21 01/02/2021 15:07:17 94.67
2 01/03/2021 14:48:12 01/03/2021 14:48:41 01/03/2021 14:48:26 16.66
3 01/05/2021 07:31:01 01/05/2021 07:31:31 01/05/2021 07:31:16 0.99
4 01/08/2021 14:54:30 01/08/2021 14:54:58 01/08/2021 14:54:44 20.06
5 01/09/2021 14:35:47 01/09/2021 14:36:02 01/09/2021 14:35:55 86.89
6 01/10/2021 07:37:20 01/10/2021 07:37:47 01/10/2021 07:37:34 36.14
7 01/11/2021 07:18:35 01/11/2021 07:18:54 01/11/2021 07:18:45 74.01
8 01/13/2021 15:00:50 01/13/2021 15:01:14 01/13/2021 15:01:02 57.34
9 01/14/2021 14:41:59 01/14/2021 14:42:24 01/14/2021 14:42:12 51.82
